Precipitable_Water
0.29 0.21 0.18 0.16 0.17 0.20 0.22 0.22 0.21 0.21 0.20 0.19 0.18 0.16 0.15 0.15 0.14 0.15 0.16 0.19 0.22 0.19 0.17 0.17 0.17 0.17 0.16 0.16 0.17 0.19 0.29 0.39 0.39 0.40 0.44 0.48 0.53 0.56 0.60 0.70 0.81 0.90 0.90 0.99 1.06 1.09 1.10 1.13 1.21 1.16 1.08 0.99 0.99 1.07 1.34 1.42 1.48 1.49 1.41 1.37 1.32 1.37 1.37 1.32 1.28 1.27 1.23 1.17 1.13 1.14 1.12 1.07 1.08 1.07 1.10 1.11 1.13 1.15 1.19 1.20 1.20 1.19 1.19 1.19 1.19 1.16
0.26 0.19 0.17 0.19 0.22 0.22 0.23 0.24 0.24 0.23 0.22 0.20 0.18 0.17 0.15 0.16 0.13 0.14 0.16 0.19 0.22 0.20 0.18 0.20 0.19 0.18 0.18 0.18 0.19 0.21 0.23 0.30 0.35 0.37 0.39 0.43 0.49 0.53 0.63 0.72 0.80 0.86 0.96 1.00 1.03 1.07 1.10 1.17 1.20 1.11 1.04 1.00 0.91 0.92 0.96 1.09 1.30 1.42 1.42 1.36 1.34 1.36 1.34 1.32 1.29 1.26 1.23 1.19 1.11 1.07 1.05 1.03 1.04 1.05 1.05 1.04 1.09 1.11 1.15 1.18 1.20 1.20 1.21 1.20 1.19 1.18
0.19 0.15 0.18 0.23 0.25 0.24 0.23 0.23 0.23 0.21 0.20 0.21 0.18 0.17 0.15 0.14 0.16 0.16 0.17 0.20 0.22 0.22 0.19 0.22 0.20 0.19 0.18 0.18 0.20 0.21 0.22 0.26 0.31 0.33 0.33 0.38 0.44 0.56 0.66 0.70 0.77 0.82 0.85 0.93 0.98 1.02 1.07 1.13 1.15 1.12 1.03 1.03 1.06 1.12 1.07 1.05 1.13 1.29 1.35 1.35 1.35 1.34 1.32 1.30 1.30 1.26 1.20 1.19 1.18 1.12 1.06 1.05 1.05 1.14 1.11 1.08 1.10 1.11 1.11 1.14 1.17 1.18 1.19 1.18 1.19 1.20
0.17 0.18 0.22 0.24 0.24 0.22 0.21 0.21 0.20 0.20 0.20 0.18 0.18 0.16 0.13 0.16 0.15 0.12 0.15 0.19 0.22 0.22 0.20 0.21 0.20 0.19 0.19 0.19 0.19 0.20 0.21 0.23 0.29 0.32 0.33 0.37 0.39 0.50 0.59 0.67 0.72 0.75 0.79 0.84 0.89 0.94 1.01 1.05 1.06 1.05 1.02 1.04 1.11 1.13 1.18 1.14 1.09 1.19 1.28 1.32 1.32 1.30 1.31 1.29 1.29 1.26 1.25 1.20 1.18 1.18 1.13 1.13 1.10 1.01 1.06 1.08 1.08 1.07 1.06 1.03 1.09 1.09 1.11 1.11 1.11 1.13
0.19 0.21 0.26 0.25 0.24 0.23 0.20 0.21 0.19 0.18 0.16 0.18 0.18 0.16 0.15 0.16 0.16 0.16 0.15 0.20 0.23 0.25 0.25 0.23 0.21 0.19 0.18 0.16 0.16 0.19 0.20 0.20 0.27 0.32 0.36 0.49 0.57 0.64 0.72 0.78 0.80 0.76 0.79 0.82 0.87 0.94 1.01 0.98 0.96 0.98 0.99 1.07 1.06 1.08 1.13 1.13 1.08 1.10 1.15 1.25 1.30 1.29 1.29 1.30 1.28 1.26 1.24 1.17 1.13 1.13 1.11 1.11 1.05 1.04 1.01 0.98 0.94 0.98 1.00 0.98 0.98 0.99 1.04 1.03 1.04 1.05
0.23 0.25 0.28 0.25 0.24 0.23 0.21 0.19 0.20 0.19 0.16 0.16 0.18 0.17 0.16 0.17 0.15 0.17 0.20 0.20 0.20 0.19 0.24 0.23 0.17 0.15 0.17 0.18 0.17 0.19 0.19 0.20 0.25 0.30 0.37 0.48 0.52 0.64 0.66 0.72 0.84 0.91 0.93 0.87 0.87 0.96 1.03 0.98 0.98 0.98 1.01 1.01 1.03 1.07 1.12 1.22 1.17 1.14 1.15 1.21 1.27 1.31 1.32 1.29 1.28 1.28 1.23 1.12 1.06 1.03 0.95 0.89 0.89 0.84 0.85 0.81 0.79 0.84 0.87 0.88 0.97 1.01 1.03 1.01 0.99 1.00
0.23 0.26 0.27 0.24 0.23 0.22 0.21 0.20 0.20 0.20 0.17 0.15 0.14 0.18 0.17 0.17 0.19 0.21 0.23 0.23 0.19 0.16 0.23 0.26 0.17 0.14 0.15 0.17 0.18 0.19 0.19 0.20 0.26 0.29 0.39 0.48 0.56 0.60 0.64 0.73 0.80 0.85 0.91 0.97 1.00 1.05 1.06 1.03 0.99 1.00 0.99 0.98 0.98 1.04 1.15 1.22 1.24 1.21 1.18 1.21 1.25 1.29 1.30 1.30 1.28 1.27 1.19 1.10 1.08 1.00 0.91 0.87 0.83 0.79 0.82 0.87 0.88 0.87 0.91 0.95 0.95 0.98 1.02 1.00 0.94 0.92
0.23 0.24 0.24 0.24 0.23 0.22 0.21 0.20 0.22 0.21 0.19 0.15 0.18 0.20 0.21 0.20 0.20 0.22 0.24 0.24 0.22 0.26 0.27 0.26 0.22 0.16 0.13 0.17 0.22 0.23 0.22 0.21 0.24 0.34 0.41 0.49 0.56 0.61 0.66 0.75 0.80 0.85 0.90 0.94 1.00 1.05 1.08 1.09 1.12 1.04 1.02 0.98 1.00 1.07 1.14 1.21 1.24 1.20 1.20 1.22 1.26 1.31 1.31 1.29 1.27 1.23 1.19 1.10 1.07 0.97 0.91 0.89 0.84 0.82 0.80 0.85 0.88 0.94 0.96 0.95 0.93 0.93 0.95 0.99 0.98 0.95
0.23 0.21 0.21 0.22 0.23 0.22 0.20 0.24 0.25 0.25 0.21 0.20 0.22 0.23 0.23 0.24 0.25 0.25 0.24 0.23 0.24 0.23 0.19 0.22 0.26 0.18 0.16 0.19 0.24 0.25 0.23 0.28 0.29 0.35 0.42 0.50 0.57 0.62 0.69 0.78 0.83 0.87 0.93 0.97 0.97 0.97 0.93 0.88 0.93 1.02 1.00 1.04 1.06 1.08 1.10 1.17 1.22 1.26 1.28 1.30 1.31 1.31 1.30 1.28 1.24 1.20 1.20 1.14 1.04 0.95 0.91 0.85 0.87 0.87 0.87 0.91 0.95 0.96 0.97 0.89 0.89 0.89 0.93 0.96 0.97 0.98
0.23 0.22 0.23 0.23 0.21 0.19 0.23 0.25 0.26 0.25 0.21 0.26 0.28 0.27 0.26 0.26 0.26 0.26 0.25 0.23 0.22 0.20 0.18 0.20 0.23 0.17 0.16 0.20 0.23 0.27 0.24 0.29 0.32 0.39 0.47 0.54 0.59 0.64 0.70 0.79 0.85 0.92 0.97 1.01 1.02 1.03 1.00 0.99 1.02 1.03 1.05 1.04 1.04 1.07 1.14 1.18 1.21 1.24 1.27 1.27 1.26 1.26 1.27 1.24 1.19 1.19 1.18 1.12 1.02 0.94 0.90 0.85 0.86 0.91 0.90 0.91 0.93 0.91 0.90 0.87 0.87 0.87 0.87 0.88 0.90 0.93
0.25 0.27 0.27 0.24 0.22 0.24 0.25 0.26 0.27 0.26 0.26 0.29 0.27 0.25 0.25 0.25 0.25 0.27 0.25 0.22 0.20 0.16 0.17 0.21 0.23 0.20 0.16 0.21 0.29 0.28 0.27 0.32 0.42 0.48 0.53 0.59 0.65 0.71 0.77 0.80 0.85 0.91 0.96 1.00 1.04 1.05 1.02 1.06 1.04 1.04 0.99 1.00 1.04 1.09 1.14 1.16 1.18 1.24 1.27 1.26 1.22 1.24 1.25 1.23 1.17 1.15 1.14 1.10 1.03 0.96 0.92 0.90 0.88 0.89 0.85 0.88 0.90 0.90 0.89 0.84 0.84 0.83 0.82 0.84 0.87 0.90
0.25 0.26 0.24 0.25 0.27 0.27 0.27 0.25 0.27 0.28 0.28 0.27 0.26 0.24 0.24 0.24 0.25 0.23 0.21 0.22 0.16 0.14 0.18 0.22 0.22 0.22 0.16 0.21 0.31 0.42 0.45 0.43 0.44 0.42 0.47 0.54 0.60 0.66 0.75 0.81 0.88 0.93 0.96 1.02 1.04 1.02 1.01 1.01 1.00 1.00 0.96 0.97 1.01 1.08 1.11 1.13 1.17 1.20 1.28 1.28 1.22 1.24 1.25 1.23 1.19 1.16 1.15 1.10 1.04 1.00 0.97 0.96 0.94 0.89 0.86 0.86 0.86 0.88 0.85 0.84 0.81 0.81 0.80 0.83 0.90 0.92
0.23 0.24 0.27 0.27 0.30 0.28 0.26 0.24 0.26 0.27 0.28 0.27 0.27 0.25 0.20 0.19 0.19 0.16 0.17 0.14 0.14 0.14 0.19 0.24 0.24 0.21 0.20 0.32 0.40 0.45 0.48 0.46 0.53 0.50 0.50 0.56 0.62 0.67 0.75 0.83 0.89 0.94 0.97 1.00 1.00 0.99 0.98 0.94 0.92 0.91 0.93 0.95 0.98 0.98 1.03 1.07 1.13 1.19 1.24 1.27 1.22 1.21 1.25 1.22 1.19 1.16 1.16 1.10 1.03 1.02 1.00 0.99 0.96 0.92 0.92 0.91 0.89 0.89 0.84 0.82 0.79 0.78 0.79 0.86 0.88 0.90
0.20 0.24 0.25 0.25 0.26 0.28 0.27 0.22 0.23 0.22 0.26 0.26 0.24 0.23 0.20 0.17 0.15 0.13 0.15 0.17 0.16 0.18 0.22 0.23 0.28 0.21 0.29 0.36 0.50 0.46 0.53 0.54 0.53 0.61 0.63 0.61 0.64 0.69 0.76 0.84 0.91 0.98 1.00 1.01 1.00 0.98 0.94 0.92 0.92 0.92 0.93 0.94 0.96 0.96 1.01 1.06 1.12 1.17 1.21 1.26 1.22 1.20 1.23 1.21 1.17 1.16 1.14 1.09 1.04 1.04 1.02 1.01 0.98 0.95 0.95 0.93 0.90 0.88 0.85 0.82 0.80 0.80 0.84 0.87 0.86 0.86
0.15 0.15 0.18 0.21 0.21 0.27 0.27 0.26 0.25 0.25 0.26 0.25 0.27 0.24 0.21 0.19 0.15 0.13 0.14 0.13 0.14 0.16 0.20 0.26 0.21 0.20 0.21 0.28 0.54 0.59 0.62 0.59 0.62 0.67 0.71 0.73 0.75 0.77 0.84 0.90 0.96 0.98 1.02 1.02 1.01 0.97 0.94 0.93 0.93 0.94 0.96 0.97 0.97 0.98 1.01 1.06 1.11 1.16 1.18 1.21 1.19 1.18 1.19 1.17 1.14 1.14 1.12 1.08 1.04 1.05 1.04 1.02 0.98 0.94 0.95 0.94 0.92 0.86 0.83 0.83 0.83 0.85 0.91 0.90 0.89 0.84
0.19 0.18 0.23 0.25 0.26 0.29 0.27 0.29 0.29 0.27 0.26 0.27 0.26 0.26 0.21 0.18 0.20 0.15 0.18 0.19 0.19 0.18 0.18 0.24 0.24 0.36 0.31 0.54 0.62 0.65 0.68 0.65 0.68 0.68 0.71 0.74 0.80 0.83 0.84 0.88 0.92 0.96 0.99 1.01 1.00 1.00 0.99 0.99 0.98 0.96 0.96 1.00 1.01 1.00 1.03 1.06 1.11 1.15 1.19 1.20 1.18 1.16 1.13 1.12 1.12 1.11 1.09 1.06 1.07 1.07 1.05 1.02 0.99 0.99 0.99 0.96 0.92 0.89 0.86 0.85 0.86 0.89 0.93 0.95 0.92 0.89
0.20 0.17 0.22 0.26 0.28 0.28 0.29 0.30 0.29 0.29 0.20 0.27 0.24 0.20 0.21 0.25 0.22 0.19 0.20 0.23 0.23 0.21 0.19 0.30 0.31 0.37 0.50 0.55 0.59 0.62 0.62 0.63 0.68 0.70 0.71 0.75 0.83 0.85 0.84 0.89 0.93 0.96 0.97 0.97 0.95 0.96 1.00 1.02 1.03 1.02 1.00 1.03 1.05 1.03 1.05 1.08 1.12 1.15 1.18 1.16 1.14 1.15 1.13 1.11 1.12 1.10 1.08 1.09 1.10 1.10 1.06 1.02 1.03 1.03 0.97 0.94 0.90 0.87 0.90 0.90 0.90 0.93 0.96 0.97 0.95 0.90
0.21 0.19 0.24 0.25 0.24 0.29 0.31 0.31 0.30 0.29 0.27 0.26 0.21 0.24 0.29 0.30 0.27 0.21 0.16 0.19 0.17 0.16 0.22 0.29 0.26 0.30 0.28 0.26 0.54 0.58 0.56 0.57 0.67 0.71 0.75 0.78 0.84 0.84 0.86 0.88 0.90 0.92 0.95 0.98 0.98 0.99 1.02 1.04 1.04 1.05 1.06 1.09 1.09 1.08 1.09 1.10 1.13 1.15 1.16 1.16 1.13 1.13 1.10 1.11 1.12 1.09 1.06 1.07 1.08 1.08 1.04 1.02 1.06 1.06 1.01 0.96 0.88 0.87 0.89 0.90 0.92 0.96 0.95 0.95 0.94 0.91
0.29 0.19 0.22 0.26 0.27 0.30 0.33 0.30 0.27 0.28 0.29 0.25 0.24 0.31 0.23 0.21 0.18 0.23 0.20 0.16 0.16 0.15 0.19 0.26 0.31 0.32 0.32 0.32 0.45 0.51 0.52 0.56 0.60 0.73 0.76 0.78 0.82 0.84 0.87 0.88 0.91 0.95 0.95 0.94 0.93 0.96 1.00 1.01 1.02 1.02 1.04 1.08 1.08 1.08 1.09 1.11 1.13 1.13 1.15 1.18 1.19 1.16 1.16 1.14 1.14 1.13 1.11 1.11 1.08 1.08 1.06 1.05 1.09 1.11 1.03 0.95 0.89 0.89 0.89 0.89 0.92 0.95 0.96 0.97 0.94 0.91
0.34 0.21 0.20 0.26 0.25 0.29 0.33 0.29 0.21 0.24 0.28 0.28 0.28 0.26 0.30 0.25 0.23 0.20 0.21 0.21 0.19 0.17 0.18 0.22 0.27 0.25 0.37 0.41 0.48 0.50 0.58 0.61 0.60 0.71 0.74 0.78 0.79 0.86 0.92 0.90 0.94 0.92 0.95 1.00 1.00 1.00 1.03 1.04 1.02 1.02 1.04 1.02 1.00 1.01 1.07 1.11 1.14 1.15 1.18 1.20 1.20 1.19 1.17 1.15 1.15 1.16 1.15 1.16 1.15 1.12 1.11 1.13 1.15 1.13 1.03 0.96 0.91 0.91 0.90 0.90 0.93 0.96 0.96 0.96 0.94 0.91
0.33 0.32 0.19 0.24 0.30 0.29 0.25 0.31 0.27 0.27 0.24 0.23 0.22 0.23 0.26 0.26 0.32 0.29 0.29 0.22 0.18 0.17 0.18 0.19 0.19 0.25 0.37 0.49 0.51 0.55 0.59 0.64 0.65 0.64 0.69 0.77 0.83 0.81 0.85 0.91 0.98 1.03 0.96 0.98 1.00 1.05 1.06 1.09 1.08 1.09 1.11 1.10 1.09 1.06 1.09 1.13 1.14 1.16 1.19 1.20 1.21 1.17 1.14 1.14 1.17 1.18 1.19 1.20 1.19 1.12 1.05 1.07 1.11 1.10 1.06 1.02 0.99 0.95 0.93 0.93 0.96 0.99 0.99 0.97 0.90 0.89
0.34 0.32 0.23 0.27 0.26 0.24 0.27 0.36 0.35 0.33 0.31 0.27 0.23 0.24 0.28 0.25 0.23 0.20 0.19 0.28 0.25 0.19 0.17 0.17 0.16 0.27 0.43 0.57 0.58 0.59 0.66 0.68 0.74 0.73 0.71 0.78 0.82 0.84 0.83 0.88 0.92 0.92 0.98 1.00 1.01 1.03 1.05 1.12 1.15 1.09 1.08 1.08 1.08 1.07 1.09 1.13 1.17 1.18 1.21 1.24 1.24 1.22 1.19 1.18 1.20 1.19 1.14 1.18 1.18 1.12 1.07 1.07 1.07 1.08 1.06 1.04 1.03 0.99 0.98 0.96 0.98 1.01 0.99 0.92 0.87 0.83
0.42 0.38 0.30 0.27 0.28 0.28 0.32 0.38 0.41 0.41 0.38 0.37 0.32 0.28 0.31 0.30 0.30 0.24 0.18 0.22 0.26 0.25 0.26 0.24 0.20 0.26 0.52 0.62 0.62 0.62 0.66 0.70 0.74 0.75 0.75 0.79 0.80 0.83 0.85 0.88 0.94 0.97 0.96 0.99 1.02 1.03 1.04 1.09 1.13 1.15 1.07 1.04 1.08 1.12 1.15 1.17 1.18 1.19 1.20 1.21 1.20 1.20 1.19 1.21 1.20 1.21 1.20 1.19 1.16 1.14 1.13 1.13 1.10 1.08 1.09 1.07 1.05 1.02 1.00 0.99 1.01 1.02 0.97 0.88 0.80 0.72
0.51 0.37 0.29 0.29 0.33 0.36 0.38 0.40 0.40 0.41 0.39 0.34 0.35 0.37 0.32 0.27 0.30 0.27 0.24 0.27 0.24 0.26 0.22 0.22 0.19 0.28 0.52 0.65 0.66 0.68 0.70 0.70 0.73 0.82 0.80 0.79 0.81 0.86 0.88 0.92 0.93 0.94 0.97 1.00 1.02 1.04 1.03 1.06 1.10 1.15 1.07 1.07 1.10 1.12 1.13 1.16 1.19 1.18 1.15 1.15 1.13 1.14 1.18 1.19 1.19 1.20 1.18 1.14 1.13 1.13 1.13 1.10 1.09 1.08 1.08 1.07 1.06 1.03 1.02 1.03 1.03 1.03 0.96 0.81 0.69 0.63
0.37 0.41 0.32 0.27 0.26 0.28 0.31 0.33 0.33 0.37 0.37 0.34 0.33 0.35 0.36 0.35 0.34 0.33 0.31 0.32 0.23 0.25 0.25 0.21 0.16 0.24 0.47 0.63 0.68 0.70 0.69 0.69 0.73 0.81 0.83 0.83 0.83 0.87 0.94 0.94 0.95 0.95 0.96 0.99 0.99 1.00 1.01 1.01 1.05 1.04 1.09 1.07 1.10 1.15 1.18 1.16 1.17 1.13 1.10 1.12 1.16 1.18 1.20 1.19 1.19 1.17 1.14 1.12 1.09 1.11 1.12 1.10 1.08 1.08 1.08 1.09 1.10 1.08 1.07 1.06 1.05 1.03 0.93 0.74 0.63 0.65
0.43 0.41 0.35 0.25 0.21 0.19 0.18 0.19 0.22 0.26 0.30 0.35 0.37 0.37 0.36 0.33 0.31 0.28 0.23 0.26 0.22 0.26 0.27 0.23 0.22 0.35 0.52 0.61 0.62 0.66 0.67 0.68 0.73 0.78 0.85 0.85 0.84 0.86 0.89 0.89 0.90 0.90 0.90 0.94 0.98 0.97 0.93 0.97 1.03 1.05 1.07 1.11 1.13 1.16 1.16 1.16 1.15 1.14 1.13 1.14 1.18 1.19 1.19 1.18 1.20 1.17 1.13 1.11 1.09 1.11 1.12 1.12 1.10 1.10 1.08 1.11 1.14 1.12 1.09 1.07 1.05 1.04 0.91 0.73 0.65 0.70
0.42 0.45 0.42 0.35 0.29 0.26 0.28 0.30 0.35 0.37 0.35 0.29 0.32 0.35 0.36 0.38 0.37 0.33 0.30 0.25 0.22 0.27 0.25 0.28 0.30 0.35 0.42 0.50 0.54 0.60 0.64 0.64 0.68 0.73 0.77 0.80 0.84 0.87 0.87 0.85 0.84 0.84 0.85 0.89 0.91 0.91 0.94 0.97 0.99 1.02 1.02 1.06 1.09 1.12 1.12 1.11 1.11 1.12 1.13 1.14 1.18 1.22 1.20 1.20 1.18 1.20 1.16 1.16 1.11 1.08 1.10 1.09 1.14 1.15 1.14 1.16 1.15 1.14 1.12 1.08 1.06 1.04 0.89 0.77 0.72 0.73
0.43 0.38 0.42 0.42 0.39 0.38 0.40 0.37 0.39 0.37 0.33 0.35 0.34 0.34 0.38 0.37 0.37 0.33 0.29 0.27 0.35 0.27 0.23 0.32 0.39 0.33 0.37 0.47 0.53 0.57 0.63 0.65 0.68 0.72 0.76 0.79 0.82 0.82 0.81 0.82 0.83 0.84 0.86 0.88 0.90 0.90 0.89 0.89 0.91 0.92 0.95 0.98 1.01 1.05 1.07 1.09 1.09 1.09 1.11 1.13 1.17 1.17 1.17 1.20 1.20 1.21 1.19 1.18 1.16 1.14 1.18 1.19 1.19 1.18 1.18 1.16 1.17 1.16 1.13 1.10 1.08 1.03 0.91 0.84 0.78 0.76
0.42 0.36 0.43 0.42 0.40 0.44 0.45 0.42 0.41 0.39 0.38 0.38 0.37 0.36 0.35 0.38 0.37 0.34 0.35 0.37 0.38 0.28 0.24 0.34 0.41 0.36 0.41 0.49 0.56 0.60 0.63 0.65 0.68 0.73 0.75 0.79 0.81 0.79 0.79 0.79 0.79 0.79 0.81 0.83 0.84 0.84 0.85 0.85 0.86 0.88 0.90 0.94 0.98 1.01 1.05 1.08 1.10 1.12 1.14 1.16 1.17 1.18 1.18 1.19 1.18 1.18 1.15 1.15 1.12 1.14 1.17 1.18 1.16 1.18 1.19 1.17 1.16 1.14 1.12 1.10 1.10 1.06 0.96 0.90 0.86 0.83
0.45 0.40 0.44 0.44 0.41 0.42 0.43 0.44 0.44 0.40 0.39 0.38 0.39 0.39 0.40 0.39 0.40 0.40 0.39 0.41 0.38 0.36 0.36 0.39 0.42 0.43 0.50 0.54 0.60 0.64 0.69 0.70 0.72 0.75 0.77 0.76 0.75 0.76 0.76 0.74 0.74 0.76 0.77 0.78 0.79 0.81 0.83 0.83 0.84 0.86 0.89 0.91 0.94 0.98 1.02 1.06 1.08 1.09 1.09 1.10 1.12 1.13 1.16 1.20 1.18 1.17 1.16 1.14 1.15 1.18 1.17 1.18 1.17 1.18 1.18 1.15 1.13 1.13 1.13 1.11 1.10 1.07 1.00 0.96 0.95 0.91
0.43 0.40 0.46 0.44 0.39 0.40 0.44 0.46 0.46 0.43 0.40 0.36 0.39 0.40 0.41 0.42 0.43 0.45 0.44 0.44 0.44 0.41 0.44 0.44 0.42 0.42 0.55 0.64 0.64 0.67 0.69 0.71 0.70 0.68 0.70 0.72 0.73 0.73 0.72 0.72 0.74 0.75 0.76 0.77 0.77 0.79 0.81 0.82 0.83 0.86 0.87 0.87 0.90 0.93 0.96 0.96 0.97 0.98 0.97 0.98 1.01 1.04 1.09 1.13 1.10 1.09 1.09 1.09 1.13 1.16 1.16 1.14 1.13 1.14 1.12 1.17 1.13 1.11 1.13 1.10 1.10 1.09 1.02 0.99 1.01 0.98
0.46 0.42 0.46 0.44 0.36 0.37 0.43 0.44 0.44 0.44 0.42 0.40 0.39 0.39 0.39 0.38 0.37 0.41 0.42 0.48 0.43 0.39 0.43 0.44 0.39 0.40 0.55 0.65 0.65 0.64 0.64 0.65 0.63 0.65 0.66 0.67 0.70 0.71 0.71 0.72 0.72 0.73 0.76 0.77 0.79 0.81 0.80 0.81 0.82 0.83 0.84 0.86 0.88 0.91 0.91 0.90 0.90 0.90 0.89 0.91 0.92 0.93 0.95 0.96 0.96 0.95 0.95 0.97 1.03 1.06 1.08 1.10 1.11 1.12 1.09 1.12 1.12 1.10 1.09 1.11 1.11 1.08 1.03 1.00 1.01 1.02
0.42 0.41 0.39 0.40 0.35 0.35 0.43 0.45 0.44 0.44 0.41 0.35 0.36 0.40 0.43 0.42 0.43 0.46 0.49 0.52 0.50 0.50 0.41 0.37 0.40 0.52 0.57 0.62 0.59 0.58 0.61 0.63 0.64 0.65 0.65 0.66 0.67 0.69 0.71 0.70 0.71 0.72 0.73 0.78 0.77 0.79 0.81 0.82 0.82 0.82 0.83 0.85 0.86 0.87 0.87 0.86 0.85 0.83 0.84 0.84 0.85 0.87 0.88 0.89 0.90 0.88 0.88 0.92 0.93 0.93 0.95 0.98 1.01 1.03 1.02 1.02 1.04 1.07 1.08 1.07 1.07 1.08 1.07 1.05 1.05 1.02
0.43 0.40 0.36 0.41 0.32 0.35 0.41 0.43 0.45 0.38 0.28 0.30 0.46 0.52 0.49 0.44 0.45 0.42 0.42 0.47 0.53 0.54 0.48 0.52 0.55 0.59 0.60 0.59 0.57 0.56 0.57 0.61 0.65 0.67 0.69 0.68 0.67 0.68 0.69 0.71 0.71 0.71 0.72 0.76 0.77 0.79 0.80 0.81 0.82 0.82 0.82 0.83 0.84 0.85 0.85 0.85 0.82 0.81 0.82 0.81 0.80 0.80 0.80 0.81 0.81 0.80 0.81 0.84 0.83 0.82 0.85 0.88 0.91 0.90 0.89 0.90 0.91 0.93 0.95 0.94 0.95 1.00 1.03 1.04 1.02 0.98
0.39 0.39 0.37 0.39 0.32 0.29 0.37 0.40 0.34 0.26 0.29 0.45 0.54 0.57 0.56 0.54 0.53 0.49 0.48 0.50 0.53 0.56 0.57 0.55 0.57 0.57 0.61 0.62 0.61 0.60 0.63 0.66 0.67 0.67 0.67 0.70 0.70 0.69 0.68 0.68 0.71 0.67 0.76 0.74 0.77 0.78 0.78 0.77 0.77 0.80 0.81 0.82 0.83 0.84 0.84 0.83 0.83 0.81 0.80 0.79 0.78 0.77 0.76 0.76 0.75 0.74 0.75 0.76 0.76 0.77 0.79 0.81 0.82 0.82 0.82 0.82 0.84 0.85 0.85 0.85 0.85 0.86 0.87 0.89 0.90 0.90
0.37 0.36 0.38 0.35 0.36 0.36 0.31 0.31 0.22 0.26 0.43 0.50 0.53 0.56 0.59 0.58 0.56 0.52 0.48 0.52 0.56 0.56 0.57 0.55 0.58 0.61 0.63 0.64 0.65 0.66 0.65 0.70 0.70 0.69 0.69 0.71 0.72 0.70 0.68 0.68 0.70 0.72 0.72 0.74 0.75 0.76 0.76 0.76 0.79 0.80 0.82 0.85 0.85 0.86 0.87 0.85 0.85 0.83 0.82 0.81 0.79 0.77 0.76 0.75 0.74 0.72 0.73 0.73 0.73 0.74 0.74 0.76 0.77 0.77 0.78 0.78 0.79 0.80 0.80 0.81 0.80 0.79 0.80 0.80 0.82 0.84
0.41 0.40 0.38 0.31 0.38 0.27 0.29 0.29 0.29 0.41 0.42 0.45 0.46 0.49 0.52 0.48 0.49 0.46 0.39 0.46 0.56 0.59 0.58 0.56 0.57 0.59 0.61 0.63 0.65 0.65 0.66 0.65 0.61 0.63 0.69 0.70 0.71 0.72 0.71 0.71 0.73 0.72 0.72 0.73 0.73 0.73 0.75 0.79 0.80 0.85 0.88 0.86 0.88 0.86 0.85 0.88 0.87 0.86 0.85 0.84 0.83 0.81 0.80 0.77 0.75 0.74 0.74 0.74 0.74 0.73 0.73 0.72 0.72 0.73 0.72 0.72 0.73 0.73 0.74 0.74 0.76 0.77 0.78 0.77 0.78 0.79
0.45 0.37 0.41 0.33 0.32 0.36 0.29 0.26 0.27 0.28 0.25 0.35 0.46 0.53 0.57 0.59 0.58 0.57 0.49 0.45 0.56 0.59 0.60 0.59 0.57 0.58 0.59 0.61 0.61 0.63 0.66 0.59 0.54 0.57 0.65 0.67 0.70 0.70 0.71 0.71 0.71 0.72 0.74 0.74 0.73 0.72 0.72 0.73 0.74 0.76 0.76 0.77 0.81 0.83 0.82 0.82 0.83 0.83 0.81 0.81 0.82 0.84 0.83 0.80 0.78 0.77 0.75 0.75 0.75 0.74 0.73 0.72 0.70 0.69 0.69 0.69 0.70 0.71 0.72 0.74 0.75 0.76 0.77 0.75 0.76 0.76
0.43 0.43 0.40 0.33 0.32 0.33 0.30 0.25 0.24 0.22 0.28 0.41 0.44 0.49 0.53 0.58 0.59 0.58 0.45 0.38 0.54 0.57 0.59 0.60 0.59 0.60 0.63 0.61 0.62 0.65 0.60 0.51 0.52 0.59 0.66 0.69 0.69 0.71 0.70 0.70 0.72 0.71 0.70 0.70 0.70 0.69 0.69 0.67 0.66 0.67 0.69 0.70 0.70 0.73 0.76 0.78 0.78 0.78 0.76 0.77 0.76 0.77 0.80 0.80 0.80 0.80 0.79 0.78 0.76 0.75 0.74 0.73 0.72 0.70 0.69 0.69 0.69 0.70 0.69 0.70 0.71 0.72 0.72 0.72 0.72 0.72
0.36 0.37 0.36 0.31 0.30 0.31 0.29 0.25 0.24 0.29 0.30 0.41 0.46 0.49 0.52 0.54 0.57 0.49 0.28 0.30 0.51 0.57 0.60 0.60 0.58 0.58 0.59 0.60 0.62 0.60 0.56 0.50 0.53 0.61 0.69 0.68 0.69 0.69 0.68 0.67 0.67 0.66 0.68 0.68 0.68 0.67 0.67 0.66 0.65 0.64 0.64 0.65 0.66 0.67 0.67 0.68 0.70 0.73 0.74 0.73 0.72 0.72 0.72 0.72 0.73 0.74 0.76 0.79 0.79 0.79 0.79 0.77 0.75 0.73 0.70 0.68 0.66 0.65 0.64 0.64 0.64 0.64 0.64 0.64 0.64 0.63
0.31 0.32 0.34 0.29 0.30 0.31 0.30 0.29 0.31 0.33 0.42 0.47 0.48 0.51 0.52 0.55 0.51 0.33 0.25 0.40 0.54 0.58 0.60 0.60 0.59 0.60 0.60 0.59 0.59 0.54 0.57 0.59 0.60 0.61 0.63 0.64 0.63 0.63 0.65 0.66 0.66 0.66 0.65 0.65 0.65 0.65 0.63 0.62 0.62 0.63 0.65 0.67 0.69 0.69 0.69 0.68 0.67 0.67 0.70 0.70 0.70 0.71 0.72 0.72 0.72 0.72 0.72 0.72 0.73 0.73 0.73 0.74 0.74 0.74 0.73 0.72 0.70 0.67 0.66 0.65 0.64 0.64 0.63 0.62 0.61 0.60
0.30 0.31 0.33 0.34 0.31 0.29 0.30 0.28 0.28 0.33 0.42 0.49 0.51 0.51 0.54 0.46 0.31 0.29 0.45 0.56 0.57 0.57 0.60 0.61 0.59 0.60 0.60 0.58 0.59 0.57 0.58 0.60 0.59 0.61 0.60 0.59 0.57 0.58 0.59 0.62 0.64 0.65 0.66 0.66 0.66 0.64 0.61 0.59 0.59 0.60 0.63 0.66 0.67 0.68 0.68 0.66 0.64 0.65 0.65 0.65 0.66 0.69 0.72 0.72 0.72 0.71 0.70 0.70 0.70 0.70 0.70 0.70 0.71 0.71 0.70 0.70 0.69 0.67 0.67 0.68 0.67 0.66 0.66 0.65 0.64 0.63
0.29 0.27 0.27 0.28 0.33 0.33 0.31 0.28 0.27 0.24 0.40 0.49 0.50 0.47 0.52 0.37 0.40 0.49 0.53 0.55 0.57 0.57 0.58 0.59 0.59 0.60 0.59 0.57 0.60 0.59 0.58 0.57 0.57 0.56 0.55 0.54 0.52 0.52 0.53 0.54 0.54 0.56 0.57 0.57 0.58 0.60 0.58 0.56 0.56 0.58 0.60 0.62 0.63 0.63 0.64 0.63 0.62 0.62 0.62 0.62 0.64 0.67 0.68 0.68 0.68 0.68 0.67 0.67 0.66 0.67 0.68 0.68 0.68 0.67 0.66 0.66 0.66 0.64 0.63 0.64 0.63 0.62 0.61 0.60 0.58 0.57
0.35 0.26 0.27 0.30 0.35 0.27 0.27 0.25 0.26 0.38 0.46 0.52 0.48 0.38 0.47 0.49 0.54 0.54 0.53 0.50 0.54 0.56 0.55 0.57 0.58 0.58 0.58 0.58 0.58 0.59 0.59 0.57 0.56 0.54 0.53 0.52 0.51 0.51 0.50 0.51 0.51 0.52 0.54 0.54 0.55 0.56 0.56 0.55 0.56 0.57 0.58 0.60 0.61 0.62 0.63 0.61 0.60 0.61 0.61 0.62 0.67 0.68 0.68 0.67 0.66 0.66 0.64 0.63 0.63 0.63 0.63 0.63 0.62 0.61 0.60 0.59 0.59 0.58 0.57 0.57 0.57 0.56 0.55 0.53 0.51 0.49
0.33 0.27 0.29 0.25 0.37 0.31 0.29 0.34 0.42 0.47 0.49 0.52 0.51 0.50 0.52 0.54 0.56 0.56 0.56 0.54 0.52 0.54 0.57 0.55 0.55 0.57 0.58 0.58 0.59 0.60 0.58 0.56 0.53 0.52 0.50 0.49 0.49 0.49 0.49 0.50 0.50 0.49 0.49 0.49 0.51 0.53 0.53 0.53 0.54 0.56 0.57 0.59 0.60 0.61 0.61 0.61 0.59 0.59 0.59 0.62 0.64 0.63 0.62 0.61 0.61 0.59 0.58 0.58 0.57 0.57 0.56 0.56 0.55 0.54 0.54 0.53 0.53 0.51 0.50 0.49 0.49 0.47 0.47 0.46 0.44 0.43
0.34 0.34 0.34 0.30 0.30 0.38 0.41 0.42 0.46 0.46 0.47 0.49 0.52 0.53 0.51 0.52 0.54 0.55 0.55 0.53 0.54 0.55 0.56 0.55 0.56 0.56 0.57 0.58 0.57 0.56 0.54 0.52 0.51 0.50 0.50 0.50 0.49 0.49 0.49 0.48 0.48 0.49 0.49 0.49 0.50 0.50 0.51 0.52 0.54 0.54 0.55 0.56 0.58 0.58 0.58 0.58 0.56 0.53 0.55 0.58 0.57 0.57 0.56 0.55 0.53 0.52 0.51 0.52 0.51 0.51 0.52 0.50 0.50 0.49 0.48 0.48 0.48 0.47 0.46 0.44 0.44 0.42 0.42 0.41 0.39 0.38
0.28 0.30 0.27 0.23 0.28 0.27 0.22 0.36 0.37 0.38 0.43 0.45 0.47 0.50 0.51 0.52 0.51 0.53 0.53 0.53 0.54 0.54 0.54 0.55 0.55 0.55 0.55 0.55 0.53 0.51 0.51 0.52 0.51 0.51 0.52 0.51 0.49 0.48 0.47 0.47 0.47 0.48 0.47 0.46 0.48 0.50 0.50 0.50 0.51 0.51 0.52 0.52 0.55 0.55 0.55 0.55 0.55 0.54 0.55 0.54 0.54 0.53 0.52 0.50 0.49 0.48 0.48 0.47 0.47 0.47 0.47 0.45 0.44 0.44 0.44 0.44 0.44 0.44 0.43 0.42 0.41 0.40 0.38 0.37 0.35 0.34
0.20 0.31 0.23 0.22 0.23 0.20 0.23 0.31 0.34 0.36 0.39 0.41 0.42 0.43 0.43 0.47 0.49 0.51 0.52 0.53 0.53 0.54 0.54 0.54 0.55 0.53 0.53 0.52 0.53 0.52 0.52 0.52 0.51 0.51 0.51 0.50 0.50 0.49 0.49 0.49 0.48 0.48 0.49 0.49 0.49 0.50 0.51 0.51 0.51 0.51 0.51 0.51 0.53 0.54 0.54 0.53 0.53 0.53 0.53 0.52 0.51 0.50 0.49 0.46 0.45 0.44 0.43 0.43 0.43 0.43 0.43 0.42 0.42 0.41 0.40 0.41 0.41 0.39 0.39 0.39 0.39 0.37 0.36 0.35 0.34 0.32
0.24 0.28 0.16 0.22 0.19 0.24 0.28 0.30 0.31 0.31 0.33 0.35 0.38 0.41 0.42 0.44 0.46 0.48 0.51 0.52 0.53 0.53 0.54 0.55 0.56 0.55 0.55 0.54 0.54 0.53 0.52 0.52 0.52 0.51 0.50 0.50 0.49 0.48 0.48 0.48 0.49 0.48 0.48 0.47 0.47 0.48 0.49 0.50 0.50 0.50 0.50 0.50 0.51 0.51 0.50 0.49 0.49 0.49 0.48 0.48 0.47 0.46 0.43 0.42 0.42 0.42 0.41 0.42 0.41 0.40 0.40 0.39 0.39 0.39 0.38 0.37 0.37 0.37 0.37 0.36 0.35 0.34 0.34 0.36 0.36 0.34
0.25 0.19 0.24 0.22 0.17 0.18 0.19 0.22 0.26 0.20 0.20 0.27 0.32 0.36 0.39 0.42 0.43 0.44 0.47 0.48 0.50 0.51 0.53 0.53 0.54 0.56 0.55 0.55 0.54 0.53 0.51 0.50 0.50 0.49 0.48 0.48 0.48 0.49 0.49 0.49 0.49 0.49 0.49 0.49 0.49 0.48 0.48 0.49 0.49 0.48 0.48 0.49 0.50 0.50 0.48 0.47 0.47 0.47 0.47 0.46 0.45 0.44 0.41 0.40 0.39 0.38 0.38 0.38 0.38 0.38 0.36 0.35 0.36 0.36 0.35 0.34 0.33 0.33 0.33 0.36 0.36 0.35 0.33 0.32 0.34 0.35
0.20 0.22 0.23 0.18 0.16 0.17 0.24 0.26 0.29 0.27 0.27 0.29 0.30 0.33 0.35 0.37 0.38 0.38 0.38 0.39 0.41 0.42 0.43 0.42 0.43 0.44 0.46 0.47 0.48 0.46 0.45 0.45 0.45 0.45 0.43 0.42 0.42 0.43 0.43 0.43 0.43 0.43 0.43 0.44 0.44 0.44 0.43 0.44 0.44 0.44 0.44 0.44 0.45 0.44 0.43 0.43 0.44 0.43 0.43 0.43 0.42 0.41 0.39 0.38 0.36 0.35 0.35 0.36 0.35 0.35 0.34 0.34 0.34 0.34 0.33 0.33 0.33 0.33 0.32 0.32 0.35 0.37 0.37 0.36 0.35 0.35
Wind_Speed
17 17 18 18 16 16 17 18 17 17 15 15 16 16 16 16 16 17 15 16 15 15 18 18 19 20 21 22 20 21 24 24 23 22 20 20 19 19 19 18 18 18 17 16 15 14 12 11 11 11 9 8 8 8 11 13 14 15 14 14 14 15 14 14 15 14 14 13 12 11 11 11 11 11 10 9 8 8 8 7 7 7 7 6 6 6
16 18 18 17 17 17 17 17 17 17 16 16 17 17 17 17 17 16 15 16 16 15 17 16 18 20 21 21 20 19 22 24 24 22 21 21 20 18 17 17 18 18 17 17 15 14 13 13 14 12 10 10 8 7 8 9 13 15 15 16 16 15 15 15 15 15 14 14 13 12 12 12 12 11 10 9 9 8 8 8 7 7 6 6 6 6
16 18 17 16 17 17 16 16 16 17 17 17 17 17 17 16 15 16 15 16 15 14 16 16 17 20 21 20 20 20 21 23 25 24 23 22 20 18 17 18 19 18 17 17 16 15 15 15 14 12 12 11 9 8 8 7 9 12 14 16 16 16 16 15 15 15 14 14 14 12 12 12 12 11 10 9 9 9 8 8 7 7 6 6 6 6
16 16 16 16 16 15 16 16 15 16 16 17 16 17 17 16 14 15 14 14 15 15 16 17 17 19 18 18 19 19 20 22 24 26 24 22 20 19 18 19 20 19 18 17 17 16 16 15 14 13 13 12 11 10 9 7 8 10 13 15 16 17 16 16 16 15 14 15 14 12 12 12 12 11 10 9 9 8 8 7 7 7 7 6 6 6
17 15 13 13 13 14 15 15 15 16 16 16 17 18 17 16 16 17 15 14 16 16 16 15 15 16 15 15 16 16 17 20 22 23 22 19 18 18 18 19 20 20 19 18 17 17 16 16 15 14 13 13 13 12 11 10 10 10 13 15 16 16 16 16 16 16 15 15 15 13 12 12 12 11 10 10 9 8 8 8 7 7 7 7 6 6
18 15 12 12 12 13 14 15 14 15 15 16 17 18 18 17 17 17 15 14 15 15 15 12 11 14 14 13 15 14 15 18 19 21 19 17 18 18 18 18 19 20 20 19 18 17 17 17 15 14 14 13 13 13 13 13 12 12 13 14 15 16 17 17 17 17 16 16 16 15 13 13 12 12 11 11 10 9 9 8 7 7 7 7 6 6
15 14 13 13 13 13 13 14 13 13 14 15 15 16 17 17 16 16 15 14 14 14 14 12 11 13 13 13 14 13 14 16 17 17 17 17 18 19 18 18 18 19 20 19 19 18 17 16 15 14 13 13 13 13 13 13 13 13 13 14 15 16 17 17 17 17 16 16 16 16 14 14 13 13 12 11 10 9 9 8 8 8 7 7 7 7
14 14 13 13 12 12 12 12 11 11 11 13 13 13 15 15 16 16 14 14 14 14 15 13 11 12 13 13 12 11 11 12 13 14 15 16 18 18 18 18 18 19 20 19 18 18 16 14 13 12 12 13 13 13 13 13 13 13 13 14 15 16 17 18 18 17 17 17 17 16 15 14 14 13 12 11 10 9 9 8 8 8 7 8 7 7
12 14 14 13 12 11 12 11 10 10 11 12 11 12 14 15 15 15 14 14 14 13 15 14 11 11 12 12 11 9 9 10 12 14 14 15 17 18 19 19 18 18 20 19 18 18 16 14 13 12 11 11 12 12 13 12 12 13 13 14 15 15 17 18 18 18 17 18 18 17 16 15 14 13 12 11 10 10 9 8 8 7 7 7 8 7
12 14 14 13 12 12 12 12 10 11 13 12 10 11 13 13 14 14 14 14 13 13 16 16 12 11 12 11 9 8 9 10 12 12 13 14 16 17 19 19 19 19 19 19 18 17 16 16 15 12 10 10 10 11 12 12 12 12 12 14 15 15 17 18 18 18 18 18 18 17 16 15 14 13 12 11 11 10 9 9 8 7 7 7 7 7
13 13 13 13 13 12 13 13 11 13 14 11 10 12 13 12 13 13 13 13 12 14 17 17 14 12 12 12 10 10 11 12 12 11 12 13 14 17 19 19 20 20 19 19 19 17 16 16 14 12 11 10 9 11 12 12 12 13 13 14 15 15 17 18 17 17 17 17 18 17 17 16 15 13 12 12 11 10 9 9 8 7 7 7 7 7
14 14 14 14 14 13 13 13 11 12 13 11 10 12 12 12 12 12 12 12 12 15 16 16 14 13 14 13 11 11 12 13 13 13 13 14 15 17 19 19 20 20 20 19 19 18 16 15 13 13 12 11 10 11 12 13 13 13 15 15 15 16 18 18 17 17 17 17 17 17 17 17 15 14 13 12 11 11 10 9 8 7 7 7 7 7
15 16 14 13 14 14 12 13 11 10 11 11 10 10 10 10 10 11 12 12 13 15 15 13 12 13 14 14 13 12 12 13 14 14 14 14 15 17 18 19 20 20 20 20 19 18 16 15 13 13 12 11 11 11 12 12 12 13 15 16 16 17 18 17 17 17 17 18 18 17 17 17 15 14 13 12 11 11 10 9 8 8 7 7 6 7
14 15 14 13 13 13 13 13 12 11 11 12 11 11 11 9 8 10 11 11 13 14 14 13 12 12 13 13 12 12 13 13 13 13 13 14 15 16 18 19 20 20 21 21 19 18 16 15 13 12 12 11 11 11 11 11 12 13 15 16 17 17 17 17 17 18 18 18 17 17 17 16 15 15 14 13 12 11 10 9 9 8 7 7 6 6
13 13 14 14 13 11 12 13 13 11 12 12 12 11 11 11 10 10 11 11 12 13 12 12 12 12 13 13 12 12 11 10 10 11 12 13 14 16 18 19 20 21 21 20 19 17 16 15 13 11 11 11 11 12 11 11 12 14 15 16 17 18 18 17 18 18 19 18 17 17 17 16 16 15 14 13 11 11 10 10 9 8 8 7 7 7
13 14 14 14 13 11 11 12 11 10 11 12 12 11 11 12 11 10 11 11 11 11 11 11 12 13 13 13 11 10 9 8 9 11 12 13 14 16 19 20 20 20 20 19 18 17 15 13 12 11 10 11 11 12 12 11 12 14 16 17 18 18 17 17 18 18 19 18 17 17 17 16 16 16 14 13 11 10 10 10 9 9 8 8 8 7
12 14 14 13 13 13 13 12 11 11 12 12 11 12 12 12 11 11 11 10 9 10 11 12 12 12 12 12 11 10 9 8 9 10 11 13 14 16 18 19 20 19 19 18 17 16 14 12 11 10 10 10 11 12 12 12 13 14 16 17 18 18 17 17 17 18 18 18 18 17 17 17 16 16 14 13 12 11 11 10 9 9 9 8 8 8
12 14 14 13 13 13 13 13 12 12 12 12 12 13 12 10 10 11 10 9 8 10 11 11 12 12 12 13 12 11 10 10 9 10 11 12 14 15 16 18 18 18 18 17 16 15 14 12 11 10 10 10 11 12 12 12 13 14 15 17 17 17 17 17 17 17 17 17 17 17 17 17 16 15 14 13 13 12 11 10 10 9 9 9 9 9
12 13 14 14 14 12 11 11 12 12 13 14 13 12 11 10 10 11 11 10 9 11 11 11 11 13 13 13 13 12 12 11 10 10 11 12 13 14 15 16 17 17 17 16 15 15 14 14 12 12 12 12 12 13 13 13 14 15 15 16 16 16 16 16 16 16 17 17 17 17 16 16 16 15 14 13 13 12 11 10 10 9 9 9 9 9
11 11 13 14 13 12 9 10 12 13 12 13 14 13 12 12 11 11 12 12 11 11 12 12 11 13 14 14 14 14 13 13 13 12 11 12 13 13 13 13 14 14 14 14 14 14 14 15 14 13 13 13 14 14 14 14 15 15 15 16 16 16 16 16 16 17 17 17 17 16 16 16 15 15 14 13 13 13 12 11 10 9 9 9 9 9
10 10 12 13 12 11 10 11 12 13 12 12 14 14 13 13 12 11 11 11 11 11 12 12 13 14 15 14 14 15 14 14 15 14 12 12 13 13 12 12 12 11 10 11 12 13 14 14 13 13 13 14 14 14 14 14 15 16 16 16 17 17 17 17 16 17 17 17 16 16 16 16 16 15 14 14 14 13 12 10 10 10 9 9 9 9
12 10 12 12 12 12 13 12 11 11 11 11 13 14 14 13 13 11 11 11 11 12 13 13 13 14 14 13 13 13 13 13 14 14 13 13 13 13 12 11 11 10 9 9 10 11 12 13 13 13 13 14 14 14 15 15 15 16 16 16 17 17 17 17 17 17 16 16 16 16 16 16 16 16 15 14 14 13 12 11 10 10 10 10 11 10
14 12 12 13 13 14 15 13 11 11 11 10 11 13 14 14 13 12 12 12 11 11 12 11 11 13 13 12 12 12 12 11 12 13 13 13 12 12 12 11 10 10 9 9 9 10 11 12 13 13 13 13 14 15 16 16 15 16 16 16 16 16 16 17 17 17 16 16 16 16 17 17 17 16 16 15 14 14 13 12 12 12 11 11 11 11
16 13 13 13 12 13 14 13 12 12 12 10 10 11 12 13 15 15 14 12 11 12 12 10 11 13 13 12 12 11 11 10 10 11 12 12 12 11 11 11 10 9 8 8 9 10 11 12 12 13 13 13 13 15 16 16 16 15 15 15 16 16 16 16 17 17 16 16 16 17 17 17 17 17 17 17 16 14 13 13 13 12 12 12 11 11
15 15 14 12 11 11 12 12 12 13 13 12 12 11 11 12 13 15 15 12 12 13 13 12 12 13 13 12 12 11 11 11 10 10 11 11 10 10 9 9 8 8 7 7 7 8 9 10 11 12 12 12 13 14 15 15 15 15 14 15 16 16 16 16 17 17 16 17 17 17 18 17 17 17 16 17 17 15 14 13 13 12 11 12 11 11
14 15 15 14 13 13 13 13 14 14 13 13 13 12 11 9 10 13 14 13 13 14 13 13 13 13 13 13 12 11 12 12 9 8 8 9 9 8 8 7 7 6 6 6 6 6 7 8 9 10 10 10 11 12 13 13 14 14 14 14 15 16 16 17 18 17 16 16 17 17 17 17 17 17 16 17 17 16 15 14 13 12 11 11 12 12
13 14 15 15 14 14 14 15 15 15 14 14 14 13 12 10 9 10 11 13 14 14 13 14 14 13 14 14 14 13 13 11 9 8 8 8 8 6 5 5 6 6 6 6 6 6 6 7 8 8 9 9 10 11 11 12 12 13 14 14 14 15 16 16 17 17 16 16 16 15 16 17 17 17 16 16 17 16 15 14 14 12 11 11 12 12
12 13 14 14 13 13 13 14 14 13 14 14 14 14 14 12 10 9 10 12 13 13 14 15 14 14 15 15 14 14 13 11 10 9 9 8 8 6 5 5 5 5 6 6 5 6 6 6 7 7 8 8 9 10 10 11 11 12 13 13 13 14 14 14 15 15 15 15 15 14 15 15 15 15 16 16 16 16 16 15 14 13 12 12 12 13
12 13 14 14 13 12 12 12 12 12 13 13 13 14 15 15 13 11 12 13 12 13 15 15 14 13 14 14 14 14 12 10 9 9 9 9 8 7 5 5 5 5 6 6 5 5 6 6 6 7 7 7 8 8 9 9 9 10 11 12 11 12 13 13 13 13 13 13 14 14 14 14 14 14 14 15 15 15 15 15 14 13 13 13 13 13
11 12 14 15 14 13 13 13 12 11 12 13 13 13 14 15 16 14 14 13 12 13 14 14 13 12 13 13 13 12 10 9 9 9 9 8 8 7 6 5 6 6 6 6 6 6 6 6 7 7 7 7 7 8 8 8 8 9 10 10 10 10 11 11 11 11 11 11 12 13 13 13 13 13 13 14 14 15 15 15 14 14 13 13 13 13
10 11 12 13 13 14 14 14 13 12 12 12 12 12 13 14 16 16 15 14 13 11 11 12 13 13 13 12 12 11 11 10 9 9 9 9 9 9 8 7 6 6 6 6 6 6 7 7 7 7 7 7 7 7 8 8 7 8 8 8 8 8 9 9 9 9 9 9 10 11 12 12 12 12 12 13 13 13 14 14 14 14 14 13 13 13
9 9 10 11 11 12 13 14 14 14 13 13 12 12 13 14 16 17 18 17 16 13 12 13 14 14 14 13 12 12 11 10 9 9 9 9 9 9 8 8 7 7 7 7 7 7 8 8 7 7 7 7 7 7 7 7 7 7 7 7 7 7 8 8 8 8 8 8 9 9 10 11 11 11 11 12 12 12 14 14 14 15 14 14 14 14
8 8 8 8 9 11 13 14 15 15 15 15 15 14 14 15 16 16 17 17 17 16 15 15 15 15 14 14 13 12 11 10 10 10 9 10 10 9 9 9 8 8 8 9 9 8 8 8 8 7 7 7 7 7 7 7 7 6 7 7 7 7 7 7 7 7 7 7 7 8 8 9 10 10 10 11 11 12 13 14 14 15 15 15 15 16
9 8 7 7 7 9 11 11 12 15 16 17 17 16 16 16 16 15 15 15 16 17 15 14 15 14 14 14 14 13 13 12 11 10 10 10 11 10 10 10 10 9 9 9 9 8 8 8 8 8 8 7 7 8 8 8 7 7 7 7 7 7 7 7 7 7 7 7 7 7 7 8 8 9 9 10 10 11 12 12 13 14 15 16 16 16
11 10 10 8 7 7 8 8 9 12 14 15 17 17 17 17 16 16 15 14 15 16 15 14 15 15 15 14 14 13 13 12 11 10 10 11 12 12 12 12 11 10 9 9 8 8 7 7 7 7 8 8 8 9 9 9 8 8 8 7 7 7 7 7 7 7 7 7 7 7 7 8 8 8 9 9 10 10 11 11 12 13 14 15 15 16
12 12 11 10 8 7 7 7 7 9 10 11 13 13 13 14 14 15 15 14 15 16 16 15 15 16 15 15 14 14 14 13 10 10 10 11 12 12 13 12 11 10 9 9 8 8 8 7 7 7 8 9 9 9 9 9 9 9 8 7 7 7 7 7 7 7 7 7 7 7 8 8 9 9 9 10 10 10 11 12 12 13 14 15 15 16
12 12 11 10 9 8 7 7 6 7 7 8 9 9 10 11 12 12 13 14 14 15 15 15 15 15 15 15 15 16 15 13 12 12 11 12 12 13 13 12 11 10 10 9 9 8 8 8 8 8 9 9 9 8 9 10 10 10 8 7 7 8 7 7 7 8 8 8 8 8 9 9 10 10 11 11 11 12 12 13 14 15 15 16 16 17
10 11 12 11 10 9 8 7 7 7 7 8 8 8 8 10 11 11 11 12 12 12 13 14 14 14 15 15 16 17 16 14 14 15 13 13 13 12 11 11 10 10 10 9 9 9 9 8 8 8 9 10 9 9 9 9 10 11 10 9 9 9 9 9 9 9 9 9 10 10 11 11 12 12 13 13 14 15 15 16 16 17 18 18 19 19
8 10 11 10 10 9 8 7 7 8 8 9 9 9 8 8 10 9 8 10 11 12 13 13 13 14 14 14 15 16 15 13 13 14 13 13 13 12 12 11 10 9 9 9 9 9 9 8 8 9 10 10 11 11 11 11 11 11 11 11 10 10 10 10 10 11 11 11 12 13 14 14 15 15 15 16 17 18 18 19 19 20 21 21 21 22
8 9 10 10 10 10 9 8 8 8 9 9 9 10 9 9 10 9 8 9 11 12 13 13 13 14 14 13 13 13 13 13 14 14 14 13 13 12 12 12 12 11 10 9 9 9 9 9 9 9 10 11 11 12 13 13 13 13 12 12 12 12 12 12 12 13 13 14 15 16 16 17 17 17 18 18 19 20 20 21 22 23 23 24 24 25
9 9 9 9 10 9 9 9 9 9 10 10 9 10 10 10 10 10 10 10 10 12 13 13 13 14 13 12 12 12 13 13 14 15 15 15 14 13 12 12 12 12 11 10 10 10 10 10 10 10 11 11 12 12 13 13 13 13 14 14 14 14 15 15 16 16 17 17 18 18 18 19 19 20 20 21 22 22 23 23 24 25 25 26 26 27
7 7 7 8 8 9 9 9 9 10 10 9 10 10 10 10 11 11 11 11 11 12 13 13 13 13 12 11 11 12 13 13 14 15 15 15 14 14 14 13 13 13 12 12 12 12 12 12 12 12 12 13 13 13 13 13 14 14 15 15 16 16 17 18 18 19 19 20 20 21 21 22 22 22 23 24 24 25 25 26 27 27 27 28 28 29
6 6 6 7 7 8 8 8 8 10 10 10 10 10 9 10 11 11 11 10 10 11 12 12 13 13 13 12 12 12 13 13 13 14 14 14 14 14 14 14 14 14 14 14 14 14 14 14 14 13 14 14 15 15 15 14 14 15 16 16 17 18 19 19 20 21 21 22 22 22 23 23 24 25 25 26 27 27 28 29 29 30 30 30 31 31
4 6 6 7 7 7 8 8 9 10 10 9 9 9 10 10 11 11 10 9 10 11 11 12 12 13 14 14 13 13 13 13 13 13 13 13 13 13 13 13 13 14 14 14 15 15 15 14 14 14 14 15 15 15 16 16 15 16 17 18 18 20 20 21 22 22 22 23 23 24 24 25 25 26 27 27 28 28 29 29 30 30 31 31 32 32
4 5 5 6 7 7 7 8 9 9 9 8 7 7 8 8 9 9 9 9 9 10 11 12 12 12 13 14 14 14 14 14 14 14 13 13 13 13 12 12 13 13 14 15 15 15 15 15 15 15 15 15 15 16 16 17 16 16 17 18 19 20 21 22 23 23 23 23 24 24 25 25 26 26 27 27 28 29 29 30 30 31 32 32 33 34
4 3 4 5 6 6 6 7 8 9 8 7 7 7 6 6 7 7 7 7 8 9 10 11 11 12 12 13 13 14 15 15 14 13 13 13 13 14 14 13 14 14 14 15 15 16 16 16 15 15 15 15 16 16 17 17 17 17 18 19 20 21 22 23 23 23 23 24 25 25 26 26 27 28 28 29 29 30 31 32 32 33 34 35 36 36
3 2 3 4 5 6 7 8 8 8 8 8 7 6 6 6 6 7 7 7 8 9 10 10 11 12 12 12 13 14 14 15 15 14 14 14 15 15 15 15 15 15 15 16 17 17 17 17 17 17 17 17 18 18 18 19 19 19 20 21 22 23 23 23 23 24 24 25 25 26 27 28 28 29 30 31 31 32 33 34 34 35 36 37 38 38
3 2 2 4 4 5 7 8 8 8 8 9 8 7 7 7 7 8 8 9 9 9 10 10 11 12 12 13 13 14 14 15 16 16 16 16 16 16 17 17 17 17 17 17 18 18 19 19 19 19 19 19 19 20 20 20 20 21 22 23 23 24 24 24 24 25 25 26 27 27 28 29 30 31 32 32 33 34 35 35 36 37 38 38 39 40
3 3 4 4 4 5 6 7 7 7 8 9 9 8 8 9 9 9 10 10 11 11 11 11 11 12 13 13 14 14 15 16 16 17 17 17 17 17 18 18 18 18 19 19 19 19 19 20 20 20 20 20 21 21 21 21 22 22 23 23 24 24 24 25 25 26 27 28 28 29 30 31 31 32 33 33 34 35 35 36 37 37 38 38 39 40
2 2 3 3 4 6 7 8 8 8 9 10 10 9 10 10 10 11 12 12 13 13 14 14 14 14 15 15 15 16 16 17 18 18 18 18 19 19 19 19 20 20 20 20 20 20 21 21 21 21 21 22 22 22 22 23 23 24 24 24 25 25 25 26 27 28 29 29 30 31 31 32 32 33 33 33 33 34 34 34 35 36 36 37 37 38
2 2 3 3 4 6 8 8 8 7 8 11 11 10 10 11 10 11 12 13 14 15 15 16 16 16 17 17 17 17 18 19 19 19 20 20 20 20 20 21 21 21 22 22 22 22 22 23 23 23 23 23 24 24 24 25 25 25 25 26 26 26 26 27 28 29 30 30 30 31 31 32 32 32 32 32 32 32 33 33 34 34 35 36 36 37
Wind_Direction
231 237 241 240 238 237 239 241 241 244 247 250 251 248 246 247 246 241 236 239 246 250 247 246 249 251 248 245 239 229 229 232 232 231 229 225 224 224 223 223 220 219 220 217 217 217 217 221 217 213 215 222 233 232 221 220 222 221 219 217 215 216 216 211 207 206 206 203 200 202 203 202 198 195 195 196 196 197 200 201 202 204 204 204 208 214
234 236 240 236 234 237 240 241 241 245 248 248 249 251 249 245 246 244 239 242 245 246 248 251 254 254 249 246 241 228 227 231 229 228 228 224 223 223 220 218 216 216 217 216 216 216 216 219 219 224 230 230 228 213 208 215 218 221 223 219 214 214 213 209 207 205 203 202 202 202 201 198 196 195 197 199 199 199 201 202 204 205 206 209 216 221
238 238 239 236 236 240 245 245 242 244 246 245 245 248 247 244 247 247 241 243 245 244 250 256 257 255 251 248 241 228 227 229 225 223 223 220 219 218 215 212 210 210 213 214 216 217 221 224 226 230 230 232 237 228 220 216 212 217 219 215 211 210 209 208 207 206 204 204 204 202 199 196 196 198 198 199 200 200 202 204 206 209 211 215 220 222
238 239 237 237 237 239 247 247 243 246 246 243 242 243 244 243 245 245 242 246 248 248 252 259 262 257 253 250 242 229 225 226 223 221 221 219 218 215 211 209 207 208 209 210 214 219 223 225 228 232 231 233 238 234 230 225 215 213 210 208 207 208 209 209 207 206 205 203 203 201 198 195 196 198 197 199 202 202 204 206 208 213 215 217 220 222
237 237 233 232 233 234 243 247 243 245 247 244 239 238 241 241 239 240 244 250 254 253 249 255 265 259 251 246 239 230 224 224 224 222 222 221 217 212 208 209 210 210 209 207 211 218 222 225 229 232 230 232 234 234 234 232 227 218 208 206 207 209 211 211 209 207 205 202 202 200 196 196 197 198 199 202 204 204 205 207 209 212 214 216 218 222
238 235 228 229 233 232 238 244 241 238 245 248 241 234 235 237 237 239 246 253 256 255 245 245 258 256 250 241 235 233 226 225 225 221 219 216 211 206 206 210 213 212 210 209 212 218 222 227 231 232 231 233 236 237 236 238 237 227 216 212 213 212 211 210 208 205 203 201 201 199 197 198 198 199 202 204 205 205 207 209 212 212 214 217 218 221
235 230 225 227 231 231 236 244 239 231 240 249 241 229 227 230 235 239 244 245 245 244 241 239 245 250 252 244 240 240 229 224 223 218 215 212 208 206 206 210 212 208 207 210 215 220 224 228 229 230 234 236 237 239 241 243 238 228 221 217 216 213 209 208 205 202 202 202 202 201 200 199 200 201 204 205 207 210 211 214 218 218 219 221 221 223
227 224 224 223 225 228 235 241 234 220 232 245 234 219 222 226 230 236 239 239 240 241 243 244 240 244 247 240 240 242 226 220 218 213 215 213 208 207 206 207 206 203 203 207 213 217 222 227 229 232 238 239 238 240 242 241 233 225 223 219 215 210 206 205 204 203 203 203 202 202 201 201 202 204 204 206 210 214 217 221 223 222 224 226 227 229
221 218 219 219 224 230 231 233 226 215 230 242 228 217 223 226 229 235 236 240 243 242 244 246 240 238 240 236 238 234 216 214 215 213 215 214 210 208 205 204 203 201 202 206 210 214 219 228 235 239 242 240 240 240 239 236 228 220 218 214 210 207 204 202 201 201 201 202 202 202 202 202 204 206 206 208 212 216 220 224 223 222 225 230 232 234
221 217 217 219 227 230 230 235 229 221 233 240 229 226 231 232 236 238 235 238 241 237 237 239 234 233 235 234 232 228 220 220 221 220 218 213 210 208 204 203 203 202 204 207 211 216 222 229 234 239 243 244 244 240 233 227 219 213 210 205 202 203 200 197 197 197 198 201 202 202 202 202 202 205 208 210 212 215 219 223 223 224 229 232 235 238
227 224 223 224 227 228 231 238 232 224 230 237 235 235 238 241 241 239 237 235 235 236 234 233 229 227 231 229 219 219 227 224 220 222 219 213 210 207 205 203 203 204 207 210 214 221 227 230 232 238 245 247 245 236 225 220 215 212 210 205 202 201 197 194 196 196 198 201 202 203 202 201 201 204 207 208 210 213 217 221 225 229 232 233 235 239
235 231 231 230 228 228 234 241 238 230 229 232 236 233 234 242 239 237 242 233 228 233 232 231 227 220 222 226 223 227 233 227 220 219 216 214 211 207 205 204 203 205 208 211 218 223 227 229 234 241 247 247 242 232 224 220 216 213 212 208 203 200 197 197 199 199 199 201 202 202 202 202 204 206 207 207 209 212 215 218 223 227 230 232 237 242
237 232 234 234 230 226 232 244 247 239 227 220 224 221 222 235 234 235 239 230 227 231 229 228 225 218 218 223 231 239 239 234 230 225 217 214 212 207 205 204 203 204 208 214 219 223 225 229 237 243 244 242 237 229 223 221 216 212 209 204 200 199 199 198 199 198 198 198 199 200 201 204 206 207 207 207 209 212 214 216 219 223 227 232 241 245
236 237 236 233 234 228 225 235 241 236 223 214 217 217 217 225 228 234 238 232 230 229 227 226 223 223 224 225 235 242 240 235 230 226 220 214 210 207 205 204 204 207 212 216 218 221 225 231 240 244 238 234 230 222 219 217 212 207 203 200 198 198 198 196 196 196 195 197 198 199 201 205 206 206 207 208 210 212 213 215 219 224 229 235 242 245
228 236 231 222 228 229 223 227 228 224 222 222 223 219 220 222 220 228 232 228 228 226 226 228 224 224 226 228 237 240 239 231 218 216 216 212 210 208 206 206 207 211 214 217 219 222 227 233 239 239 231 227 222 215 212 211 207 203 201 200 199 197 197 196 196 197 197 199 200 201 202 204 205 206 207 208 211 212 214 218 223 228 234 239 243 244
226 232 230 222 224 227 228 230 221 217 227 231 226 220 225 224 219 226 226 221 223 222 224 228 225 226 226 230 239 237 232 223 212 210 209 211 213 208 207 208 209 212 213 215 219 223 230 235 234 230 224 222 216 209 207 207 204 203 202 200 199 198 197 196 196 198 201 202 202 202 202 203 204 206 208 212 215 216 219 223 229 234 238 242 244 244
228 231 231 228 229 229 229 228 221 221 226 228 225 224 228 224 216 223 227 227 226 222 224 224 222 229 230 230 240 239 230 222 216 212 208 211 214 208 206 207 208 210 211 215 220 224 230 233 230 226 224 219 212 207 207 205 202 200 200 199 198 197 196 195 196 199 201 202 202 201 201 202 205 207 211 215 218 220 223 227 232 236 240 243 245 247
232 233 231 227 232 236 232 225 226 228 221 218 225 226 225 225 223 221 222 229 228 224 227 223 221 229 229 229 236 239 235 229 226 222 213 209 211 210 207 206 206 208 210 215 219 224 229 228 224 224 222 215 210 207 205 202 200 198 198 198 197 196 196 196 197 198 200 201 201 202 202 204 206 208 211 216 219 222 224 230 235 238 241 243 246 249
233 235 235 227 227 238 239 225 228 236 227 219 222 225 220 221 225 221 217 221 220 221 228 228 228 231 227 227 230 230 231 228 227 230 221 210 212 215 211 207 206 208 212 218 222 226 228 223 219 219 216 211 208 206 203 201 199 198 197 197 196 196 197 198 199 199 200 200 202 204 205 206 208 210 213 217 220 222 225 231 236 238 240 242 246 249
229 227 233 229 224 233 240 225 224 234 235 226 224 228 228 221 219 220 220 220 216 218 225 228 233 234 229 228 226 226 230 225 220 226 224 215 215 219 218 213 209 209 214 223 227 228 226 220 219 217 213 209 206 204 203 202 202 200 198 197 196 198 200 200 201 202 201 201 202 204 205 207 210 212 217 220 221 223 226 231 235 237 240 243 245 248
228 224 228 232 230 232 234 226 220 222 226 227 223 225 230 225 221 222 224 224 220 220 223 226 233 236 231 228 225 227 231 228 224 226 227 222 216 217 223 220 214 213 216 222 227 229 227 222 218 215 213 209 206 205 204 203 203 203 202 201 201 202 203 203 204 205 204 203 204 205 207 210 213 216 221 225 225 225 227 230 234 237 241 245 248 249
228 225 226 234 236 233 231 228 223 217 215 217 219 222 224 220 216 218 227 230 225 223 222 222 231 237 232 227 227 229 231 232 230 227 226 225 219 216 220 218 218 223 226 229 233 234 231 224 216 213 211 209 206 204 202 202 204 205 207 207 206 204 204 205 207 207 206 206 207 209 212 214 215 218 223 226 225 225 227 230 234 239 244 247 250 248
226 224 226 235 237 230 227 226 226 224 215 212 219 223 221 219 217 216 223 229 225 225 225 223 230 235 229 225 225 227 229 233 236 230 224 222 217 215 219 223 227 230 227 230 233 232 229 224 217 212 208 207 208 205 202 203 206 207 210 212 210 208 207 207 208 208 208 210 212 215 217 217 218 221 223 224 225 227 230 234 238 242 246 248 248 245
227 225 226 232 236 231 229 229 229 230 224 220 227 228 222 223 224 220 223 227 222 222 223 225 233 234 228 227 225 223 223 227 236 238 229 220 214 215 220 223 225 225 222 226 230 231 228 224 219 213 208 207 206 202 201 204 206 208 211 213 212 211 211 209 209 210 214 217 219 220 220 220 221 223 224 226 227 229 234 239 242 244 246 246 243 239
227 225 220 222 228 231 234 235 233 233 229 224 227 230 227 226 224 224 228 229 227 226 221 220 232 233 226 226 226 222 220 221 228 233 229 223 218 214 213 214 217 220 221 223 227 227 222 219 217 214 210 206 203 203 204 205 207 209 209 210 210 211 213 213 214 218 221 222 222 221 220 219 221 224 226 227 228 230 236 240 242 243 244 241 236 231
223 221 219 217 220 224 229 232 231 230 230 228 227 231 231 228 226 228 228 226 228 230 224 221 228 228 219 219 222 219 216 216 218 220 217 216 212 204 202 209 216 217 217 218 217 212 208 207 209 208 204 201 200 201 200 200 203 205 205 208 212 215 218 219 219 221 223 222 220 220 220 220 223 227 228 228 228 231 235 238 239 242 242 236 230 227
220 221 222 218 218 222 225 230 231 227 226 229 230 230 229 227 229 227 226 228 229 227 227 229 228 220 215 216 217 217 215 215 219 219 212 209 207 202 197 206 216 217 215 211 202 194 190 188 189 189 189 190 191 194 197 200 205 209 211 215 219 220 222 223 222 222 222 222 221 222 223 223 226 231 232 231 231 232 234 234 235 238 238 233 230 228
220 225 227 221 221 226 229 234 234 228 225 229 231 231 230 231 231 226 226 232 228 223 230 235 228 220 219 217 216 218 219 220 223 223 219 217 216 215 207 201 205 202 194 187 183 182 182 181 182 183 184 189 195 201 205 208 211 214 216 219 220 221 223 225 225 222 222 224 227 229 229 226 230 234 234 232 231 232 233 232 230 234 236 234 234 233
220 227 229 224 224 230 236 239 235 228 228 232 233 234 235 234 230 227 231 232 226 226 233 232 225 224 222 216 215 220 221 220 220 219 219 218 215 213 203 186 180 174 172 176 181 180 178 183 190 189 190 195 200 205 205 203 206 208 209 211 214 219 223 224 225 224 223 226 229 232 232 231 233 235 232 231 232 233 233 230 228 232 236 236 237 237
225 230 231 228 227 232 239 241 236 231 232 234 236 238 240 236 229 228 233 233 228 232 233 223 216 223 226 220 217 217 214 213 216 217 219 219 215 210 201 186 176 172 177 185 193 193 189 190 192 190 192 196 200 202 198 194 195 197 200 206 211 217 221 221 221 222 223 226 229 230 231 231 232 232 230 230 233 232 230 227 226 229 235 239 239 237
235 232 234 231 228 234 240 238 235 234 232 233 237 242 246 242 234 231 234 235 234 235 231 218 213 222 230 227 219 213 209 210 217 224 226 225 220 210 201 196 192 188 191 195 201 202 196 192 190 187 187 189 192 194 192 192 194 196 201 209 213 215 217 215 215 217 220 224 225 225 227 229 231 233 230 230 232 229 225 224 225 229 236 241 240 236
238 233 238 234 229 236 241 237 236 237 235 234 239 245 247 241 236 235 236 238 237 230 223 220 219 223 228 226 220 217 216 216 223 231 231 228 225 216 207 204 202 198 195 195 198 197 193 190 188 186 187 190 193 197 202 206 206 206 208 211 212 212 212 211 211 213 217 220 220 222 226 229 232 233 231 231 231 228 225 227 231 236 240 241 240 240
230 224 233 233 228 235 241 239 236 236 236 236 237 239 240 237 237 238 238 241 240 231 225 227 226 224 224 223 222 225 226 226 232 237 236 232 231 228 220 213 211 209 202 196 195 194 193 192 191 188 190 195 200 203 206 207 206 206 208 206 206 206 205 204 204 205 211 216 219 223 226 228 229 230 230 231 231 229 231 235 238 240 241 242 244 246
229 221 227 232 227 232 239 237 234 234 235 235 234 234 238 239 238 236 236 240 242 234 228 229 228 224 223 223 225 230 233 233 235 239 241 239 236 233 228 220 215 212 204 195 192 194 195 195 195 198 198 196 198 200 201 199 196 197 200 200 201 202 201 200 202 205 211 215 219 224 226 226 226 227 230 233 234 235 239 242 242 242 243 244 246 247
228 227 232 236 232 231 233 230 230 234 237 237 235 236 240 241 237 234 234 240 241 232 223 223 228 228 225 224 226 229 228 223 224 233 241 242 238 231 226 221 214 205 199 194 192 195 195 194 198 206 207 203 201 202 202 200 194 190 192 195 198 200 202 204 207 211 215 217 222 226 227 228 229 231 236 238 240 242 244 246 247 248 248 249 248 247
223 227 232 234 232 230 231 233 233 235 236 235 233 236 240 240 238 236 235 237 240 234 225 221 226 227 224 223 223 222 218 213 217 231 236 234 231 224 217 214 208 201 202 202 200 201 203 204 208 212 211 208 205 204 206 207 203 196 194 199 203 207 211 213 214 217 221 223 227 231 232 233 236 239 243 245 246 249 249 250 252 252 252 252 252 251
222 224 227 229 230 227 225 230 232 231 229 225 223 226 227 230 233 232 229 231 234 231 223 217 219 223 224 224 222 218 217 221 229 236 230 221 219 216 210 207 206 209 213 213 210 211 213 213 213 210 205 203 203 206 211 213 210 206 210 221 228 228 227 224 221 225 231 234 237 241 243 244 246 248 250 252 253 255 255 254 255 255 255 255 255 256
226 225 223 224 229 226 218 220 227 229 227 221 219 222 220 222 225 221 220 225 225 222 216 209 208 214 216 216 216 215 218 224 231 231 224 213 209 208 204 203 207 214 221 220 219 220 220 220 221 219 215 212 212 216 220 218 215 218 226 236 240 237 237 238 240 244 246 246 247 250 252 254 256 257 258 260 261 262 261 260 259 258 257 257 257 258
236 234 228 225 227 224 218 221 229 229 226 223 227 234 231 221 215 208 214 224 220 215 213 204 200 205 208 208 212 217 218 220 221 219 212 203 203 206 205 203 201 203 209 216 219 219 219 224 228 229 229 228 228 232 235 233 230 231 236 240 241 240 242 246 248 248 249 251 253 257 259 260 262 262 263 263 264 265 265 264 263 262 261 260 260 260
242 242 237 231 230 230 228 229 233 233 229 225 229 240 242 229 213 208 219 229 219 212 213 209 203 206 211 215 221 225 224 221 217 211 205 202 205 207 206 204 202 204 207 212 219 222 223 229 233 234 235 236 237 240 242 241 239 239 241 243 245 247 250 252 253 253 255 257 260 262 262 262 262 263 264 265 266 267 266 265 264 263 263 263 262 262
237 239 236 230 231 236 234 232 237 239 233 229 236 244 244 233 222 220 227 231 221 210 211 213 210 209 214 222 229 229 224 218 211 207 208 210 211 212 210 207 206 210 214 217 223 229 235 241 245 245 242 242 242 244 244 243 242 244 246 249 252 254 256 257 258 259 261 262 263 264 264 264 264 265 266 267 268 268 268 267 267 266 266 266 266 266
235 236 238 234 234 237 232 229 236 239 235 241 251 249 237 225 224 228 232 231 221 209 206 211 214 215 217 222 221 215 209 206 204 207 212 216 217 221 224 222 220 224 228 230 235 240 246 250 251 249 249 249 250 250 250 249 249 250 253 255 257 259 260 261 262 263 264 264 265 265 265 267 268 268 269 269 269 269 269 270 270 270 270 270 270 270
231 229 234 237 236 235 231 231 235 237 244 259 260 246 232 226 228 231 233 229 219 208 205 208 214 217 217 213 205 200 200 204 208 212 217 221 225 230 232 233 234 238 242 244 246 249 251 252 251 250 252 253 253 253 254 253 252 254 255 257 259 261 263 264 265 266 267 267 268 268 269 270 270 270 270 271 271 271 271 271 271 271 271 271 271 272
240 231 230 239 241 237 235 236 236 238 250 262 255 238 234 237 236 232 227 223 219 213 209 210 214 217 213 205 199 200 204 208 213 218 223 227 232 235 236 238 241 244 248 251 252 253 254 252 250 250 251 252 253 254 255 255 254 255 257 259 261 264 265 267 268 269 270 270 270 271 271 272 272 272 272 272 272 272 272 272 272 272 272 272 272 272
246 236 231 240 243 236 232 233 236 240 249 253 245 233 230 233 233 226 216 215 218 216 212 209 210 212 209 203 202 205 209 213 219 225 230 233 236 239 242 246 247 248 251 253 253 254 255 252 250 249 250 251 254 255 257 258 258 259 260 262 264 266 268 269 271 271 272 272 272 273 273 274 274 275 275 275 275 274 274 274 274 274 274 274 274 274
232 235 237 239 239 239 240 242 244 246 250 250 244 237 229 222 221 216 209 214 221 220 217 213 211 213 213 210 210 213 215 219 224 230 235 239 243 246 248 251 254 255 256 257 256 255 253 251 250 250 251 253 256 257 259 261 262 263 263 265 267 269 270 271 272 272 272 272 273 273 274 275 276 276 276 277 277 276 276 276 276 276 276 276 276 276
250 249 248 245 243 245 246 248 251 251 253 253 248 241 237 230 225 220 217 221 225 223 221 219 218 219 220 219 219 222 226 229 232 237 241 244 247 250 251 253 256 258 260 261 259 256 253 252 251 252 253 255 258 259 261 262 264 265 266 268 270 271 272 273 272 271 272 272 273 274 275 276 276 277 277 278 278 277 277 277 277 277 277 277 277 277
261 263 266 266 266 257 248 249 253 254 254 253 245 236 234 231 229 228 225 225 226 226 225 225 226 227 228 228 228 229 232 235 237 239 243 247 249 252 254 256 257 259 260 261 259 255 253 253 253 253 255 257 259 261 263 263 265 266 268 270 271 271 272 272 271 271 272 273 274 275 276 277 278 278 278 278 278 278 278 278 278 277 277 277 277 277
280 288 284 279 281 277 265 256 255 257 260 257 246 237 236 233 230 231 230 227 225 225 227 231 233 232 231 231 233 233 234 237 239 239 242 247 250 253 256 257 259 260 261 262 259 256 254 254 254 255 256 258 259 262 263 265 266 268 269 270 271 272 272 272 273 273 274 275 276 277 277 278 278 279 279 279 279 279 279 279 278 278 278 278 278 278
320 302 298 298 289 279 267 254 250 253 257 254 246 240 242 240 234 233 233 231 230 229 230 232 235 236 236 235 236 238 239 241 243 244 246 249 250 252 254 256 257 258 259 260 259 257 256 256 257 258 258 259 260 262 263 265 267 269 270 271 272 273 274 274 275 276 277 278 278 279 280 280 281 281 281 281 281 281 281 281 281 280 280 279 279 279
324 289 288 290 282 273 260 248 247 251 251 251 249 248 248 246 239 236 235 234 234 234 233 233 235 238 241 242 241 241 242 244 246 249 251 251 251 252 253 254 255 256 256 256 256 256 256 257 259 259 260 260 261 262 264 266 268 269 271 272 273 275 276 277 278 279 280 280 280 281 282 282 282 283 283 283 283 283 283 284 284 283 282 281 281 281